Location: Ailingen
(47.6833°N, 9.5000°E)
Time: 07:20:27
(UTC+00:00)

Cosmos 1943 Rocket - Pass Details

Date: 18 November 2025
Orbit: 812 x 841 km, 71.0° (Epoch: 13 December)

Event Time Altitude Azimuth Distance (km) Brightness Sun altitude
Rises 17:22:02 0° 214° (SW) 3,372 6.0 -16.6°
Reaches altitude 10° 17:24:29 10° 217° (SW) 2,438 5.3 -17.1°
Maximum altitude 17:30:03 67° 300° (WNW) 899 2.5 -18.0°
Enters shadow 17:35:23 11° 23° (NNE) 2,346 4.2 -18.9°
